Regional Weather Roundup
Issued by NWS Goodland, KS

Home | Current Version | Previous Version | Graphics & Text | Print | Product List | Glossary On
Versions: 1 2 3 4 5 6 7 8 9 10 11 12 13 14 15 16 17 18 19 20 21 22 23 24 25 26 27 28 29 30 31 32 33 34 35 36 37 38 39 40 41 42 43 44 45 46 47 48 49 50
000
ASUS43 KGLD 241208
RWRGLD

GOODLAND FORECAST AREA HOURLY WEATHER ROUNDUP
NATIONAL WEATHER SERVICE GOODLAND KS
600 AM MDT FRI OCT 24 2014

...OFFICIAL OBSERVATIONS...

CITY           SKY/WX    TMP DP  RH WIND       PRES   REMARKS
GOODLAND KS    MOCLDY    52  42  69 W10       30.07S
HILL CITY KS   PTCLDY    50  50 100 W3        30.00S FOG
IMPERIAL NEB   CLOUDY    51  38  60 W9        30.01R
MCCOOK NEB     MOCLDY    49  47  93 SW8       30.00S
AKRON CO       CLOUDY    54  34  46 SW12      30.09S
BURLINGTON CO  PTCLDY    50  39  66 W9        30.09S
LIMON CO       MOCLDY    44  33  65 N6        30.16S
$$

...UNOFFICIAL OBSERVATIONS...

CITY           SKY/WX    TMP DP  RH WIND       PRES   REMARKS
COLBY KS       CLEAR     48  48 100 SW8       30.04S
NORTON KS      CLEAR     48  46  93 CALM      29.98S FOG
SHARON SPRINGS   N/A     50  48  92 W7          N/A
KIT CARSON CO    N/A     41  38  91 CALM        N/A
YUMA CO          N/A     51  35  55 W12         N/A
$$



USA.gov is the U.S. government's official web portal to all federal, state and local government web resources and services.